Back to catalog

STARLINK-34833

AliveCommunicationsVLEO
NORAD 65218·PAYLOAD·🇺🇸 United States

Launched Aug 14, 2025 from Cape Canaveral Space Force Station

Loading…

Next Passes (next 24 hours)

TLE

FreshSource: CelesTrak SupGP

Epoch: Sep 14, 2026, 21:08 UTC

1 65218C 25176W   26257.88104167 -.00006627  00000+0 -19588-3 0  2573
2 65218  53.1594 350.1202 0001132  83.3360 166.1704 15.34378768    12

Track STARLINK-34833 in real time with AllMySat

Download on the App Store